This is the latest recevied weather packets stored in our database for station/object DH4SBM. If no packets are shown the sender has not sent any weather packets the latest 10 day(s).
| Time | Temp. | Humidity | Pressure | Rain* | Wind** | Luminosity | Snow |
|---|---|---|---|---|---|---|---|
| 1778055338 | 16.67° C | 72% | 1007.7 hPa | 0 mm | - | 538 W/m² | - |
| 1778054738 | 16.67° C | 73% | 1007.8 hPa | 0 mm | - | 677 W/m² | - |
| 1778054138 | 16.11° C | 76% | 1007.8 hPa | 0 mm | - | 617 W/m² | - |
| 1778053538 | 15° C | 80% | 1007.9 hPa | 0 mm | - | 608 W/m² | - |
| 1778052938 | 14.44° C | 80% | 1007.9 hPa | 0 mm | - | 552 W/m² | - |
| 1778052338 | 14.44° C | 82% | 1007.8 hPa | 0 mm | - | 348 W/m² | - |
| 1778051738 | 13.89° C | 82% | 1007.8 hPa | 0 mm | - | 459 W/m² | - |
| 1778051138 | 13.33° C | 83% | 1007.7 hPa | 0 mm | - | 329 W/m² | - |
| 1778050538 | 13.33° C | 84% | 1007.7 hPa | 0 mm | - | 288 W/m² | - |
| 1778049938 | 12.78° C | 87% | 1007.7 hPa | 0 mm | - | 234 W/m² | - |
| 1778049507 | 12.78° C | 89% | 1007.7 hPa | 0 mm | - | 236 W/m² | - |
| 1778048907 | 12.22° C | 90% | 1007.9 hPa | 0 mm | - | 111 W/m² | - |
| 1778048307 | 12.22° C | 91% | 1008 hPa | 0 mm | - | 88 W/m² | - |
| 1778047706 | 11.67° C | 92% | 1008 hPa | 0 mm | - | 195 W/m² | - |
| 1778047542 | 11.67° C | 92% | 1008 hPa | 0 mm | - | 195 W/m² | - |
| 1778046942 | 11.11° C | 92% | 1007.9 hPa | 0 mm | - | 144 W/m² | - |
| 1778046342 | 10.56° C | 92% | 1008.1 hPa | 0 mm | - | 186 W/m² | - |
| 1778045742 | 10.56° C | 92% | 1008 hPa | 0 mm | - | 151 W/m² | - |
| 1778045142 | 10° C | 92% | 1008.1 hPa | 0 mm | - | 102 W/m² | - |
| 1778044542 | 10° C | 92% | 1008 hPa | 0 mm | - | 98 W/m² | - |
| 1778043942 | 10° C | 91% | 1008 hPa | 0 mm | - | 39 W/m² | - |
| 1778043342 | 10° C | 91% | 1008.1 hPa | 0 mm | - | 32 W/m² | - |
| 1778042742 | 10° C | 91% | 1008 hPa | 0 mm | - | 26 W/m² | - |
| 1778042142 | 10° C | 91% | 1008 hPa | 0 mm | - | 21 W/m² | - |
| 1778041542 | 10.56° C | 91% | 1008 hPa | 0 mm | - | 19 W/m² | - |
* Rain latest hour (hover to see other rain measurements)
** Current wind speed in m/s (hover to see current wind gust speed)